Shawnee Mission, KS

8:18 AM CDT on August 26, 2016 (GMT -0500)
Johnson County Executive

Weather History for KOJC - January, 2014

Change the Weather History Date:

Tuesday, January 14, 2014

  Actual Average Record
Temperature  
Mean Temperature 35 °F 30 °F  
Max Temperature 44 °F 39 °F 68 °F (1952)
Min Temperature 25 °F 21 °F -11 °F (1979)
Degree Days  
Heating Degree Days 30 35  
Month to date heating degree days 566 490  
Since 1 July heating degree days 2731 2455  
Cooling Degree Days 0 0  
Month to date cooling degree days 0 0  
Year to date cooling degree days 0 0  
Moisture  
Dew Point 17 °F    
Average Humidity 47    
Maximum Humidity 69    
Minimum Humidity 24    
Precipitation  
Precipitation 0.00 in 0.03 in 0.32 in (1940)
Month to date precipitation 0.03 0.40  
Year to date precipitation 0.03 0.40  
Sea Level Pressure  
Sea Level Pressure 30.03 in    
Wind  
Wind Speed 13 mph (NW)    
Max Wind Speed 28 mph    
Max Gust Speed 38 mph    
Visibility 10 miles    
Events      
T = Trace of Precipitation, MM = Missing Value Source: NWS Daily Summary

Daily Weather History Graph

Daily Weather History Graph

Search for Another Location

Airport or City:

Trip Planner

Search our weather history database for the weather conditions in past years. The results will help you decide how hot, cold, wet, or windy it might be!

Date:

Astronomy

Jan. 14, 2014 Rise Set
Actual Time 7:36 AM CST 5:20 PM CST
Civil Twilight 7:07 AM CST 5:49 PM CST
Nautical Twilight 6:34 AM CST 6:22 PM CST
Astronomical Twilight 6:02 AM CST 6:54 PM CST
Moon 4:25 PM CST (1/14) 6:11 AM CST (1/14)
Length of Visible Light 10h 42m
Length of Day
9h 44m
Waxing Gibbous, 98% of the Moon is Illuminated
Jan 14
Waxing Gibbous
Jan 15
Full
Jan 23
Last Quarter
Jan 30
New
Feb 6
First Quarter

Hourly Weather History & Observations

Time (CST) Temp. Windchill Dew Point Humidity Pressure Visibility Wind Dir Wind Speed Gust Speed Precip Events Conditions
12:53 AM 34.0 °F 28.8 °F 23.0 °F 64% 29.78 in 10.0 mi SSW 5.8 mph - N/A   Clear
1:53 AM 36.0 °F 30.3 °F 24.1 °F 62% 29.78 in 10.0 mi SW 6.9 mph - N/A   Overcast
2:53 AM 37.9 °F 32.1 °F 24.1 °F 57% 29.78 in 10.0 mi WSW 8.1 mph - N/A   Overcast
3:53 AM 37.9 °F 32.7 °F 24.1 °F 57% 29.77 in 10.0 mi WSW 6.9 mph - N/A   Mostly Cloudy
4:53 AM 39.0 °F 34.0 °F 25.0 °F 57% 29.79 in 10.0 mi West 6.9 mph - N/A   Overcast
5:53 AM 42.1 °F 36.1 °F 27.0 °F 55% 29.82 in 10.0 mi WNW 10.4 mph - N/A   Scattered Clouds
6:53 AM 42.1 °F 36.6 °F 28.9 °F 60% 29.87 in 10.0 mi NW 9.2 mph - N/A   Clear
7:53 AM 42.1 °F 35.2 °F 30.9 °F 65% 29.92 in 10.0 mi NNW 12.7 mph 24.2 mph N/A   Partly Cloudy
8:53 AM 39.9 °F 31.8 °F 27.0 °F 60% 29.98 in 10.0 mi NW 15.0 mph 25.3 mph N/A   Partly Cloudy
9:53 AM 41.0 °F 32.2 °F 26.1 °F 55% 30.03 in 10.0 mi NNW 18.4 mph 27.6 mph N/A   Clear
10:53 AM 41.0 °F 30.7 °F 23.0 °F 49% 30.07 in 10.0 mi NNW 25.3 mph 38.0 mph N/A   Clear
11:53 AM 42.1 °F 32.6 °F 17.1 °F 37% 30.07 in 10.0 mi NW 23.0 mph 32.2 mph N/A   Clear
12:53 PM 43.0 °F 34.8 °F 14.0 °F 31% 30.07 in 10.0 mi NW 18.4 mph 31.1 mph N/A   Clear
1:53 PM 43.0 °F 35.1 °F 12.9 °F 30% 30.08 in 10.0 mi NW 17.3 mph 31.1 mph N/A   Clear
2:53 PM 43.0 °F 35.1 °F 12.0 °F 28% 30.10 in 10.0 mi NW 17.3 mph 31.1 mph N/A   Clear
3:53 PM 42.1 °F 32.8 °F 9.0 °F 26% 30.12 in 10.0 mi NNW 21.9 mph 29.9 mph N/A   Clear
4:53 PM 39.9 °F 31.1 °F 6.1 °F 25% 30.14 in 10.0 mi NW 17.3 mph 23.0 mph N/A   Clear
5:53 PM 37.0 °F 28.5 °F 6.1 °F 28% 30.17 in 10.0 mi NW 13.8 mph 19.6 mph N/A   Clear
6:53 PM 35.1 °F 26.4 °F 5.0 °F 28% 30.19 in 10.0 mi NW 12.7 mph 21.9 mph N/A   Clear
7:53 PM 33.1 °F 25.5 °F 10.0 °F 38% 30.21 in 10.0 mi NNW 9.2 mph - N/A   Clear
8:53 PM 30.0 °F 23.2 °F 9.0 °F 41% 30.22 in 10.0 mi North 6.9 mph - N/A   Clear
9:53 PM 27.0 °F 18.7 °F 10.9 °F 51% 30.23 in 10.0 mi North 8.1 mph - N/A   Clear
10:53 PM 25.0 °F 17.1 °F 10.9 °F 55% 30.23 in 10.0 mi NW 6.9 mph - N/A   Mostly Cloudy
11:53 PM 25.0 °F 15.5 °F 10.0 °F 53% 30.23 in 10.0 mi NW 9.2 mph - N/A   Clear